RED-EYE 2 (MERLOT) (45800 NORAD) Tracking and Keplerian Element Data

This shows tracking and keplerian element data for the satellite.

Feedback or suggestion? Click here.




ElementValue
Catalog45800
NameRED-EYE 2 (MERLOT)
Epoch Orbit238
Epoch Day184.62662852
Epoch Year2020
RAAN272.0325
Inclination51.6429
Eccentricity0.000176
Argument of Perigee94.8159
Mean Anonmoly265.3031
Mean Motion15.49659589
Decay Rate2.154E-05
L11 45800U 98067RM 20184.62662852 .00002154 00000-0 46205-4 0 9992
L22 45800 51.6429 272.0325 0001760 94.8159 265.3031 15.49659589 2381

Live tracking and technical data element details for RED-EYE 2 (MERLOT) (NORAD 45800). RED-EYE 2 (MERLOT) can be tracked NOW for your location showing map with azimuth and elevation plus other details from your city location.

Track the satellite on the map from your city or location and see movement details for azimuth, elevation, latitude, longitude, range, height, and movement on the map or in text.







IsCatalogInMostPopularTable: catalog: 45800, numindb: 5
Update: records affected: 1



GetName: 45800 RED-EYE 2 (MERLOT)

Hit Count: updated at: Sat, 04 Jul 2020 01:37:05 GMT